Time,TemperatureF,DewpointF,PressureIn,WindDirection,WindDirectionDegrees,WindSpeedMPH,WindSpeedGustMPH,Humidity,HourlyPrecipIn,Conditions,Clouds,dailyrainin,SoftwareType,DateUTC
2013-03-22 00:03:00,28.0,10.0,29.89,WSW,247,3.0,10.0,47,0.00,,,0.00,,2013-03-22 04:03:00,
2013-03-22 00:12:00,28.0,10.0,29.89,WSW,247,3.0,10.0,47,0.00,,,0.00,,2013-03-22 04:12:00,
2013-03-22 00:23:00,28.0,11.0,29.89,West,274,2.0,10.0,48,0.00,,,0.00,,2013-03-22 04:23:00,
2013-03-22 00:32:00,28.0,11.0,29.89,West,268,2.0,13.0,48,0.00,,,0.00,,2013-03-22 04:32:00,
2013-03-22 00:43:00,28.0,11.0,29.89,West,268,2.0,13.0,48,0.00,,,0.00,,2013-03-22 04:43:00,
2013-03-22 00:52:00,28.0,11.0,29.89,WSW,257,4.0,13.0,48,0.00,,,0.00,,2013-03-22 04:52:00,
2013-03-22 01:02:00,28.0,11.0,29.89,WNW,289,2.0,11.0,49,0.00,,,0.00,,2013-03-22 05:02:00,
2013-03-22 01:12:00,28.0,11.0,29.89,WNW,289,2.0,11.0,49,0.00,,,0.00,,2013-03-22 05:12:00,
2013-03-22 01:22:00,28.0,11.0,29.89,West,263,4.0,10.0,49,0.00,,,0.00,,2013-03-22 05:22:00,
2013-03-22 01:32:00,28.0,12.0,29.89,West,271,2.0,9.0,50,0.00,,,0.00,,2013-03-22 05:32:00,
2013-03-22 01:42:00,28.0,12.0,29.89,West,271,2.0,9.0,50,0.00,,,0.00,,2013-03-22 05:42:00,
2013-03-22 01:52:00,28.0,12.0,29.89,West,275,1.0,9.0,51,0.00,,,0.00,,2013-03-22 05:52:00,
2013-03-22 02:02:00,28.0,12.0,29.89,West,276,3.0,8.0,51,0.00,,,0.00,,2013-03-22 06:02:00,
2013-03-22 02:13:00,28.0,12.0,29.89,West,276,3.0,8.0,51,0.00,,,0.00,,2013-03-22 06:13:00,
2013-03-22 02:22:00,28.0,12.0,29.88,WSW,248,4.0,9.0,51,0.00,,,0.00,,2013-03-22 06:22:00,
2013-03-22 02:32:00,28.0,13.0,29.89,WSW,256,0.0,7.0,52,0.00,,,0.00,,2013-03-22 06:32:00,
2013-03-22 02:42:00,28.0,13.0,29.89,WSW,256,0.0,7.0,52,0.00,,,0.00,,2013-03-22 06:42:00,
2013-03-22 02:52:00,27.0,12.0,29.89,WSW,249,1.0,7.0,52,0.00,,,0.00,,2013-03-22 06:52:00,
2013-03-22 03:03:00,28.0,13.0,29.89,West,279,2.0,9.0,52,0.00,,,0.00,,2013-03-22 07:03:00,
2013-03-22 03:12:00,28.0,13.0,29.89,West,279,2.0,9.0,52,0.00,,,0.00,,2013-03-22 07:12:00,
2013-03-22 03:22:00,28.0,13.0,29.89,WSW,244,0.0,4.0,52,0.00,,,0.00,,2013-03-22 07:22:00,
2013-03-22 03:32:00,28.0,13.0,29.88,SW,233,0.0,4.0,53,0.00,,,0.00,,2013-03-22 07:32:00,
2013-03-22 03:42:00,28.0,13.0,29.88,SW,233,0.0,4.0,53,0.00,,,0.00,,2013-03-22 07:42:00,
2013-03-22 03:52:00,27.0,12.0,29.88,West,266,0.0,6.0,53,0.00,,,0.00,,2013-03-22 07:52:00,
2013-03-22 04:03:00,27.0,12.0,29.89,WSW,244,2.0,10.0,53,0.00,,,0.00,,2013-03-22 08:03:00,
2013-03-22 04:13:00,27.0,12.0,29.89,WSW,244,2.0,10.0,53,0.00,,,0.00,,2013-03-22 08:13:00,
2013-03-22 04:22:00,27.0,13.0,29.88,WSW,257,0.0,8.0,54,0.00,,,0.00,,2013-03-22 08:22:00,
2013-03-22 04:32:00,27.0,13.0,29.88,WSW,252,0.0,5.0,54,0.00,,,0.00,,2013-03-22 08:32:00,
2013-03-22 04:42:00,27.0,13.0,29.88,WSW,252,0.0,5.0,54,0.00,,,0.00,,2013-03-22 08:42:00,
2013-03-22 04:52:00,27.0,13.0,29.88,West,259,1.0,10.0,54,0.00,,,0.00,,2013-03-22 08:52:00,
2013-03-22 05:02:00,27.0,13.0,29.89,WSW,256,1.0,5.0,54,0.00,,,0.00,,2013-03-22 09:02:00,
2013-03-22 05:12:00,27.0,13.0,29.89,WSW,256,1.0,5.0,54,0.00,,,0.00,,2013-03-22 09:12:00,
2013-03-22 05:22:00,27.0,13.0,29.89,WSW,257,0.0,3.0,54,0.00,,,0.00,,2013-03-22 09:22:00,
2013-03-22 05:32:00,27.0,13.0,29.89,WSW,257,0.0,0.0,55,0.00,,,0.00,,2013-03-22 09:32:00,
2013-03-22 05:42:00,27.0,13.0,29.89,WSW,257,0.0,0.0,55,0.00,,,0.00,,2013-03-22 09:42:00,
2013-03-22 05:53:00,27.0,14.0,29.90,WSW,256,0.0,0.0,57,0.00,,,0.00,,2013-03-22 09:53:00,
2013-03-22 06:04:00,27.0,14.0,29.89,West,265,1.0,6.0,57,0.00,,,0.00,,2013-03-22 10:04:00,
2013-03-22 06:12:00,27.0,14.0,29.89,West,265,1.0,6.0,57,0.00,,,0.00,,2013-03-22 10:12:00,
2013-03-22 06:22:00,27.0,13.0,29.90,WSW,255,1.0,7.0,56,0.00,,,0.00,,2013-03-22 10:22:00,
2013-03-22 06:33:00,28.0,14.0,29.91,WSW,257,2.0,10.0,55,0.00,,,0.00,,2013-03-22 10:33:00,
2013-03-22 06:42:00,28.0,14.0,29.91,WSW,257,2.0,10.0,55,0.00,,,0.00,,2013-03-22 10:42:00,
2013-03-22 06:52:00,28.0,14.0,29.91,West,265,4.0,11.0,55,0.00,,,0.00,,2013-03-22 10:52:00,
2013-03-22 07:03:00,28.0,14.0,29.91,West,259,2.0,7.0,55,0.00,,,0.00,,2013-03-22 11:03:00,
2013-03-22 07:12:00,28.0,14.0,29.91,West,259,2.0,7.0,55,0.00,,,0.00,,2013-03-22 11:12:00,
2013-03-22 07:22:00,29.0,14.0,29.91,West,262,3.0,10.0,54,0.00,,,0.00,,2013-03-22 11:22:00,
2013-03-22 07:33:00,29.0,14.0,29.91,WSW,245,0.0,12.0,54,0.00,,,0.00,,2013-03-22 11:33:00,
2013-03-22 07:42:00,29.0,14.0,29.91,WSW,245,0.0,12.0,54,0.00,,,0.00,,2013-03-22 11:42:00,
2013-03-22 07:52:00,28.0,14.0,29.93,WSW,246,1.0,8.0,55,0.00,,,0.00,,2013-03-22 11:52:00,
2013-03-22 08:02:00,29.0,14.0,29.93,WSW,244,2.0,11.0,54,0.00,,,0.00,,2013-03-22 12:02:00,
2013-03-22 08:12:00,29.0,14.0,29.93,WSW,249,0.0,11.0,54,0.00,,,0.00,,2013-03-22 12:12:00,
2013-03-22 08:22:00,29.0,14.0,29.93,WSW,249,0.0,11.0,54,0.00,,,0.00,,2013-03-22 12:22:00,
2013-03-22 08:32:00,29.0,14.0,29.94,WSW,241,2.0,8.0,54,0.00,,,0.00,,2013-03-22 12:32:00,
2013-03-22 08:42:00,29.0,14.0,29.94,WSW,241,2.0,8.0,54,0.00,,,0.00,,2013-03-22 12:42:00,
2013-03-22 08:52:00,30.0,15.0,29.94,SW,226,1.0,8.0,53,0.00,,,0.00,,2013-03-22 12:52:00,
2013-03-22 09:02:00,30.0,15.0,29.94,WSW,254,1.0,10.0,52,0.00,,,0.00,,2013-03-22 13:02:00,
2013-03-22 09:12:00,30.0,15.0,29.94,WSW,254,1.0,10.0,52,0.00,,,0.00,,2013-03-22 13:12:00,
2013-03-22 09:22:00,31.0,15.0,29.94,WSW,242,1.0,7.0,52,0.00,,,0.00,,2013-03-22 13:22:00,
2013-03-22 09:32:00,32.0,15.0,29.94,WNW,296,6.0,17.0,50,0.00,,,0.00,,2013-03-22 13:32:00,
2013-03-22 09:42:00,32.0,15.0,29.94,WNW,296,6.0,17.0,50,0.00,,,0.00,,2013-03-22 13:42:00,
2013-03-22 09:52:00,33.0,16.0,29.95,WNW,288,10.0,20.0,49,0.00,,,0.00,,2013-03-22 13:52:00,
2013-03-22 10:03:00,33.0,16.0,29.94,West,274,10.0,20.0,49,0.00,,,0.00,,2013-03-22 14:03:00,
2013-03-22 10:12:00,33.0,16.0,29.94,West,274,10.0,20.0,49,0.00,,,0.00,,2013-03-22 14:12:00,
2013-03-22 10:22:00,34.0,16.0,29.94,WSW,249,8.0,19.0,48,0.00,,,0.00,,2013-03-22 14:22:00,
2013-03-22 10:32:00,35.0,17.0,29.94,WNW,286,11.0,23.0,47,0.00,,,0.00,,2013-03-22 14:32:00,
2013-03-22 10:42:00,35.0,17.0,29.94,WNW,286,11.0,23.0,47,0.00,,,0.00,,2013-03-22 14:42:00,
2013-03-22 10:52:00,35.0,17.0,29.95,WSW,254,11.0,22.0,47,0.00,,,0.00,,2013-03-22 14:52:00,
2013-03-22 11:03:00,36.0,17.0,29.95,WSW,255,9.0,22.0,45,0.00,,,0.00,,2013-03-22 15:03:00,
2013-03-22 11:12:00,36.0,17.0,29.95,WSW,255,9.0,22.0,45,0.00,,,0.00,,2013-03-22 15:12:00,
2013-03-22 11:22:00,36.0,17.0,29.94,WSW,250,5.0,20.0,46,0.00,,,0.00,,2013-03-22 15:22:00,
2013-03-22 11:33:00,37.0,17.0,29.94,WNW,295,7.0,24.0,44,0.00,,,0.00,,2013-03-22 15:33:00,
2013-03-22 11:43:00,37.0,17.0,29.94,WNW,295,7.0,24.0,44,0.00,,,0.00,,2013-03-22 15:43:00,
2013-03-22 11:53:00,37.0,17.0,29.94,West,279,9.0,18.0,44,0.00,,,0.00,,2013-03-22 15:53:00,
2013-03-22 12:03:00,38.0,18.0,29.93,West,265,5.0,21.0,43,0.00,,,0.00,,2013-03-22 16:03:00,
2013-03-22 12:13:00,38.0,17.0,29.93,West,259,10.0,21.0,42,0.00,,,0.00,,2013-03-22 16:13:00,
2013-03-22 12:23:00,38.0,17.0,29.93,West,259,10.0,21.0,42,0.00,,,0.00,,2013-03-22 16:23:00,
2013-03-22 12:32:00,37.0,17.0,29.93,WSW,248,4.0,13.0,44,0.00,,,0.00,,2013-03-22 16:32:00,
2013-03-22 12:42:00,38.0,18.0,29.93,West,259,6.0,21.0,43,0.00,,,0.00,,2013-03-22 16:42:00,
2013-03-22 12:52:00,38.0,18.0,29.93,West,259,6.0,21.0,43,0.00,,,0.00,,2013-03-22 16:52:00,
2013-03-22 13:03:00,40.0,18.0,29.93,WSW,238,5.0,14.0,41,0.00,,,0.00,,2013-03-22 17:03:00,
2013-03-22 13:12:00,40.0,19.0,29.91,NW,321,4.0,19.0,42,0.00,,,0.00,,2013-03-22 17:12:00,
2013-03-22 13:23:00,40.0,19.0,29.91,NW,321,4.0,19.0,42,0.00,,,0.00,,2013-03-22 17:23:00,
2013-03-22 13:32:00,40.0,18.0,29.91,NW,322,11.0,18.0,41,0.00,,,0.00,,2013-03-22 17:32:00,
2013-03-22 13:42:00,40.0,18.0,29.91,NW,322,11.0,18.0,41,0.00,,,0.00,,2013-03-22 17:42:00,
2013-03-22 13:53:00,42.0,19.0,29.91,WNW,290,6.0,15.0,40,0.00,,,0.00,,2013-03-22 17:53:00,
2013-03-22 14:02:00,42.0,20.0,29.90,West,264,2.0,17.0,41,0.00,,,0.00,,2013-03-22 18:02:00,
2013-03-22 14:12:00,42.0,20.0,29.90,West,264,2.0,17.0,41,0.00,,,0.00,,2013-03-22 18:12:00,
2013-03-22 14:22:00,42.0,19.0,29.89,WNW,288,9.0,16.0,39,0.00,,,0.00,,2013-03-22 18:22:00,
2013-03-22 14:33:00,43.0,20.0,29.89,SW,220,3.0,16.0,40,0.00,,,0.00,,2013-03-22 18:33:00,
2013-03-22 14:42:00,43.0,20.0,29.89,SW,220,3.0,16.0,40,0.00,,,0.00,,2013-03-22 18:42:00,
2013-03-22 14:52:00,44.0,20.0,29.88,WNW,298,7.0,15.0,38,0.00,,,0.00,,2013-03-22 18:52:00,
2013-03-22 15:02:00,44.0,20.0,29.88,WSW,256,6.0,15.0,38,0.00,,,0.00,,2013-03-22 19:02:00,
2013-03-22 15:12:00,44.0,20.0,29.88,WSW,256,6.0,15.0,38,0.00,,,0.00,,2013-03-22 19:12:00,
2013-03-22 15:22:00,46.0,22.0,29.88,WNW,292,5.0,20.0,38,0.00,,,0.00,,2013-03-22 19:22:00,
2013-03-22 15:32:00,47.0,22.0,29.87,SW,234,1.0,13.0,37,0.00,,,0.00,,2013-03-22 19:32:00,
2013-03-22 15:42:00,47.0,22.0,29.87,SW,234,1.0,13.0,37,0.00,,,0.00,,2013-03-22 19:42:00,
2013-03-22 15:52:00,46.0,21.0,29.87,NW,306,4.0,16.0,37,0.00,,,0.00,,2013-03-22 19:52:00,
2013-03-22 16:02:00,46.0,21.0,29.87,WSW,254,4.0,13.0,37,0.00,,,0.00,,2013-03-22 20:02:00,
2013-03-22 16:12:00,46.0,21.0,29.87,WSW,254,4.0,13.0,37,0.00,,,0.00,,2013-03-22 20:12:00,
2013-03-22 16:22:00,46.0,21.0,29.88,WNW,299,7.0,16.0,37,0.00,,,0.00,,2013-03-22 20:22:00,
2013-03-22 16:32:00,47.0,21.0,29.88,WNW,294,8.0,16.0,35,0.00,,,0.00,,2013-03-22 20:32:00,
2013-03-22 16:43:00,47.0,21.0,29.88,WNW,294,8.0,16.0,35,0.00,,,0.00,,2013-03-22 20:43:00,
2013-03-22 16:52:00,47.0,21.0,29.87,NW,314,3.0,14.0,36,0.00,,,0.00,,2013-03-22 20:52:00,
2013-03-22 17:03:00,48.0,22.0,29.87,WNW,299,3.0,19.0,36,0.00,,,0.00,,2013-03-22 21:03:00,
2013-03-22 17:12:00,47.0,21.0,29.88,NW,321,5.0,20.0,36,0.00,,,0.00,,2013-03-22 21:12:00,
2013-03-22 17:22:00,47.0,21.0,29.88,NW,321,5.0,20.0,36,0.00,,,0.00,,2013-03-22 21:22:00,
2013-03-22 17:33:00,48.0,23.0,29.88,NE,42,3.0,13.0,37,0.00,,,0.00,,2013-03-22 21:33:00,
2013-03-22 17:43:00,48.0,23.0,29.88,NE,42,3.0,13.0,37,0.00,,,0.00,,2013-03-22 21:43:00,
2013-03-22 17:53:00,48.0,23.0,29.88,NW,314,4.0,12.0,37,0.00,,,0.00,,2013-03-22 21:53:00,
2013-03-22 18:03:00,47.0,21.0,29.89,West,272,7.0,14.0,36,0.00,,,0.00,,2013-03-22 22:03:00,
2013-03-22 18:12:00,47.0,21.0,29.89,West,272,7.0,14.0,36,0.00,,,0.00,,2013-03-22 22:12:00,
2013-03-22 18:23:00,47.0,22.0,29.89,NNE,15,1.0,10.0,37,0.00,,,0.00,,2013-03-22 22:23:00,
2013-03-22 18:32:00,46.0,21.0,29.90,WNW,289,2.0,13.0,37,0.00,,,0.00,,2013-03-22 22:32:00,
2013-03-22 18:43:00,46.0,21.0,29.90,WNW,289,2.0,13.0,37,0.00,,,0.00,,2013-03-22 22:43:00,
2013-03-22 18:53:00,45.0,21.0,29.90,NNE,19,2.0,15.0,38,0.00,,,0.00,,2013-03-22 22:53:00,
2013-03-22 19:02:00,45.0,22.0,29.90,WNW,290,1.0,10.0,39,0.00,,,0.00,,2013-03-22 23:02:00,
2013-03-22 19:12:00,45.0,22.0,29.90,WNW,290,1.0,10.0,39,0.00,,,0.00,,2013-03-22 23:12:00,
2013-03-22 19:22:00,44.0,22.0,29.91,West,279,0.0,13.0,41,0.00,,,0.00,,2013-03-22 23:22:00,
2013-03-22 19:32:00,43.0,21.0,29.91,North,355,1.0,7.0,41,0.00,,,0.00,,2013-03-22 23:32:00,
2013-03-22 19:42:00,43.0,21.0,29.91,North,355,1.0,7.0,41,0.00,,,0.00,,2013-03-22 23:42:00,
2013-03-22 19:52:00,42.0,21.0,29.92,NNW,338,0.0,11.0,42,0.00,,,0.00,,2013-03-22 23:52:00,
2013-03-22 20:02:00,42.0,21.0,29.92,NW,319,0.0,7.0,43,0.00,,,0.00,,2013-03-23 00:02:00,
2013-03-22 20:12:00,42.0,21.0,29.92,NW,319,0.0,7.0,43,0.00,,,0.00,,2013-03-23 00:12:00,
2013-03-22 20:23:00,41.0,21.0,29.93,NW,318,0.0,9.0,44,0.00,,,0.00,,2013-03-23 00:23:00,
2013-03-22 20:33:00,40.0,20.0,29.93,NNW,337,0.0,0.0,45,0.00,,,0.00,,2013-03-23 00:33:00,
2013-03-22 20:42:00,40.0,21.0,29.94,NNE,33,0.0,0.0,46,0.00,,,0.00,,2013-03-23 00:42:00,
2013-03-22 20:52:00,40.0,21.0,29.94,NNE,33,0.0,0.0,46,0.00,,,0.00,,2013-03-23 00:52:00,
2013-03-22 21:03:00,39.0,21.0,29.95,NNE,33,0.0,0.0,48,0.00,,,0.00,,2013-03-23 01:03:00,
2013-03-22 21:12:00,39.0,21.0,29.95,NNE,33,0.0,0.0,48,0.00,,,0.00,,2013-03-23 01:12:00,
2013-03-22 21:22:00,39.0,21.0,29.95,NNE,33,0.0,0.0,48,0.00,,,0.00,,2013-03-23 01:22:00,
2013-03-22 21:32:00,38.0,21.0,29.96,NNE,33,0.0,0.0,49,0.00,,,0.00,,2013-03-23 01:32:00,
2013-03-22 21:42:00,38.0,21.0,29.96,NNE,33,0.0,0.0,49,0.00,,,0.00,,2013-03-23 01:42:00,
2013-03-22 21:52:00,38.0,21.0,29.96,NNE,33,0.0,0.0,50,0.00,,,0.00,,2013-03-23 01:52:00,
2013-03-22 22:02:00,37.0,21.0,29.96,NNE,32,0.0,0.0,51,0.00,,,0.00,,2013-03-23 02:02:00,
2013-03-22 22:12:00,37.0,21.0,29.96,NNE,32,0.0,0.0,51,0.00,,,0.00,,2013-03-23 02:12:00,
2013-03-22 22:22:00,37.0,21.0,29.96,NNE,32,0.0,0.0,51,0.00,,,0.00,,2013-03-23 02:22:00,
2013-03-22 22:32:00,37.0,21.0,29.97,NNE,32,0.0,0.0,52,0.00,,,0.00,,2013-03-23 02:32:00,
2013-03-22 22:42:00,37.0,21.0,29.97,NNE,32,0.0,0.0,52,0.00,,,0.00,,2013-03-23 02:42:00,
2013-03-22 22:52:00,37.0,21.0,29.97,NNE,32,0.0,0.0,51,0.00,,,0.00,,2013-03-23 02:52:00,
2013-03-22 23:02:00,37.0,21.0,29.98,NNE,30,0.0,0.0,52,0.00,,,0.00,,2013-03-23 03:02:00,
2013-03-22 23:12:00,37.0,21.0,29.98,NNE,30,0.0,0.0,52,0.00,,,0.00,,2013-03-23 03:12:00,
2013-03-22 23:23:00,36.0,21.0,29.98,NNW,328,0.0,0.0,53,0.00,,,0.00,,2013-03-23 03:23:00,
2013-03-22 23:33:00,36.0,21.0,29.98,NNW,331,0.0,0.0,53,0.00,,,0.00,,2013-03-23 03:33:00,
2013-03-22 23:43:00,36.0,21.0,29.98,NNW,331,0.0,0.0,53,0.00,,,0.00,,2013-03-23 03:43:00,
2013-03-22 23:53:00,36.0,21.0,29.98,NW,321,0.0,0.0,54,0.00,,,0.00,,2013-03-23 03:53:00,